Location: Antioch Baptist Church
(32.6696°N, 85.7327°W)
Time: 12:29:19
(UTC+00:00)

ATLAS CENTAUR R/B - Pass Details

Date: 14 July 2020
Orbit: 475 x 672 km, 64.7° (Epoch: 13 July)

Event Time Altitude Azimuth Distance (km) Brightness Sun altitude
Rises 01:23:45 0° 345° (NNW) 2,535 5.5 -6.7°
Reaches altitude 10° 01:26:10 10° 359° (N) 1,645 4.2 -7.1°
Maximum altitude 01:29:13 25° 56° (NE) 1,003 2.4 -7.6°
Enters shadow 01:32:12 10° 112° (ESE) 1,624 3.1 -8.2°
